www.pogodaiklimat.ru

Погода и климат >> Архив погоды >> Россия >> Коми >> Усть-Цильма


АРХИВ ПОГОДЫ в Усть-Цильме

Время (UTC), дата Ветер
(напр.,м/с)
 
Видим.   Явления Облачность Т
(С)
Тd
(С)
f
(%)
Тe
(С)
Тes
(С)
Комфортность P
(гПа)
Po
(гПа)
Тmin
(С)
Tmax
(С)
R
(мм)
R24
(мм)
S
(см)
09 15.08 Ю 2 24 км 8/6 1500 м
[Cu hum Ac trans]
+16.7 +12.2 75 +17 +19 1010.5 1001.2
12 15.08 Ю 2 25 км 9/4 1000 м
[Cu hum Cs]
+18.4 +11.9 66 +19 +22 1010.2 1000.9
15 15.08 ЮВ 2 23 км 10/4 600 м
[Cu hum Cs]
+16.0 +12.8 81 +16 +16 1009.3 1000.0 +19.0
18 15.08 В 2 15 км 10/3 1000 м
[Sc Ac und]
+14.3 +12.5 89 +14 +14 1007.9 998.5
21 15.08 В 3 5000 м слаб. ливневой дождь 10/4 600 м
[Cb cap Ac und]
+13.1 +12.2 94 +12 +12 1005.9 996.5
00 16.08 ЮВ 3 3000 м в посл. час дождь {ливн. осадки} 10/10 180 м
[St]
+12.4 +12.2 99 +11 +11 1002.3 992.9
03 16.08 ЮВ 2 3000 м в посл. час дождь 10/9 180 м
[Frnb As op]
+12.9 +12.5 97 +12 +12 1000.1 990.7 +12.0 7
06 16.08 Ю 4-10
{11}
18 км {ливн. осадки} 9/6 630 м
[Cb cap Ac trans]
+13.5 +10.4 82 +12 +13 1001.0 991.6
09 16.08 ЮЗ 4-10
{11}
21 км 10/8 800 м
[Sc Ac und]
+13.4 +10.1 80 +12 +12 1001.7 992.3
12 16.08 ЮЗ 4-10
{13}
24 км 10/10 630 м
[Sc]
+14.1 +10.1 77 +13 +13 1003.9 994.5
15 16.08 ЮЗ 4-13
{14}
20 км 10/10 540 м
[Sc]
+13.9 +11.3 84 +12 +12 1005.9 996.5 +14.3 0.0
18 16.08 ЮЗ 2 17 км 10/10 400 м
[Sc]
+13.2 +11.7 91 +12 +12 1008.7 999.3
21 16.08 З 2-10
{10}
4000 м 10/10 500 м
[Sc]
+12.8 +12.1 96 +12 +12 1010.8 1001.4
00 17.08 Ю 1
{10}
16 км 10/10 420 м
[Sc]
+12.4 +11.6 95 +12 +12 1013.2 1003.8
03 17.08 ЮЗ 1 20 км 10/10 360 м
[Sc]
+12.4 +11.5 94 +12 +12 1014.7 1005.2 +12.0
06 17.08 ЮЗ 1 22 км 10/10 420 м
[Sc]
+13.7 +11.5 87 +14 +14 1015.7 1006.2
09 17.08 З 1 20 км 9/8 540 м
[Cb cap Ac trans]
+15.5 +12.6 83 +16 +17 1016.3 1006.8
12 17.08 27 км 9/3 1000 м
[Cb cap Ac trans Ci fib]
+16.2 +13.0 81 1017.4 1008.0
15 17.08 СЗ 2 25 км 9/3 1000 м
[Cb cap Ac trans Ci fib]
+15.7 +11.8 78 +16 +16 1018.5 1009.0 +17.9
18 17.08 18 км 8/6 1260 м
[Sc Ci fib]
+11.9 +11.3 96 1019.7 1010.2
21 17.08 штиль 0 500 м туман ?/? +11.1 +11.1 100 +10 +10 1020.8 1011.3
00 18.08 штиль 0 500 м туман ?/? +11.3 +11.3 100 +11 +11 1022.3 1012.8
03 18.08 СВ 2 3000 м в посл. час туман 10/10 210 м
[St]
+10.7 +10.5 99 +9 +9 1023.7 1014.0 +10.7
06 18.08 штиль 0 22 км {туман} 9/3 1000 м
[Sc Ac trans]
+13.9 +11.5 85 +14 +16 1024.3 1014.8
09 18.08 25 км 8/3 1000 м
[Cu hum Ac trans]
+16.1 +10.9 71 1024.7 1015.2
12 18.08 27 км 8/0
[Ac trans]
+18.1 +8.9 55 1024.8 1015.3
15 18.08 нст 1 26 км 4/0
[Ac trans]
+17.4 +10.9 66 +18 +19 1024.9 1015.4 +18.6
18 18.08 В 2 21 км ясно +13.2 +10.7 85 +12 +12 1025.5 1015.9
21 18.08 В 2 10 км 3/0
[Ci fib]
+11.8 +10.0 89 +11 +11 1026.0 1016.4
00 19.08 ЮВ 3 20 км 6/0
[Ac trans Ci fib]
+11.9 +9.9 88 +10 +10 1026.3 1016.7
03 19.08 В 3 26 км 3/0
[Ci fib]
+12.7 +11.0 89 +11 +12 1026.6 1017.0 +11.4
06 19.08 ЮВ 3 27 км ясно +17.4 +12.0 71 +17 +22 1026.2 1016.7
09 19.08 В 3 30 км 4/4 1000 м
[Cu hum]
+21.0 +13.6 63 +24 +28 комфорт 1024.6 1015.3
12 19.08 ЮВ 4 26 км 4/4 1000 м
[Cu hum]
+21.7 +11.5 52 +24 +25 комфорт 1023.0 1013.8
15 19.08 В 2 24 км 3/0
[Ac trans Ci fib]
+20.2 +11.8 58 +23 +23 комфорт 1022.3 1012.9 +22.5
18 19.08 В 3 20 км 4/0
[Ci fib]
+17.0 +11.1 68 +17 +17 1021.5 1012.1
21 19.08 В 3 10 км 4/0
[Ac trans Ci fib]
+14.8 +10.8 77 +14 +14 1021.0 1011.5
00 20.08 В 4 15 км 3/0
[Ac trans Ci fib]
+13.5 +10.6 83 +12 +12 1020.9 1011.4
03 20.08 В 4 18 км 3/0
[Ac trans Cc]
+14.0 +11.0 82 +13 +13 1020.4 1010.9 +13.4
06 20.08 В 4 20 км 1/0
[Ci fib]
+16.6 +11.4 71 +16 +20 1020.4 1011.0
09 20.08 В 4 22 км 1/0
[Cc]
+21.6 +10.3 49 +23 +28 комфорт 1019.3 1010.1
12 20.08 ЮВ 5 20 км 9/0
[Ac trans]
+19.8 +12.7 64 +21 +22 комфорт 1019.4 1010.0
15 20.08 ЮВ 4 21 км 9/3 1000 м
[Cb cap Ac trans]
+17.8 +14.0 78 +18 +18 1019.7 1010.3 +23.2
18 20.08 ЮВ 3 10 км 3/3 1000 м
[Cb cap Ac trans]
+15.7 +14.3 91 +15 +15 1019.9 1010.4
21 20.08 ЮВ 3 10 км 9/0
[Ac trans]
+15.2 +13.8 91 +14 +14 1019.8 1010.3
00 21.08 ЮВ 2 10 км 9/3 300 м
[Sc Ac trans]
+15.3 +14.2 93 +15 +15 1019.4 1009.9
03 21.08 В 2 15 км 10/4 300 м
[Sc Ac und]
+15.6 +14.6 94 +15 +16 1019.0 1009.5 +15.1
06 21.08 ЮВ 2 21 км 10/5 480 м
[Cb cap Ac und]
+16.9 +15.5 91 +17 +18 1018.6 1009.2
09 21.08 ЮВ 2 5000 м слаб. ливневой дождь 10/6 540 м
[Cb cap Ac und]
+16.7 +16.4 98 +17 +18 1018.3 1008.9
12 21.08 нст 1 4200 м слаб. ливневой дождь 10/4 300 м
[Cb cap Ac und]
+17.0 +16.7 98 +18 +19 1017.5 1008.1
15 21.08 З 1 3000 м дымка {ливн. осадки} 10/10 90 м
[St]
+16.5 +16.3 99 +17 +17 1017.4 1008.0 +17.5 13
18 21.08 18 км {ливн. осадки} 10/3 1000 м
[St Ac trans]
+14.0 +13.6 97 1017.7 1008.2
21 21.08 10 км 3/0
[Ac trans]
+11.5 +11.1 97 1017.7 1008.2
00 22.08 16 км 4/0
[Ac trans]
+9.4 +9.0 97 1018.8 1009.1
03 22.08 штиль 0 20 км {туман} ясно +10.9 +10.3 96 +10 +12 1019.0 1009.3 +7.6
06 22.08 штиль 0 23 км {туман} ясно +15.6 +13.1 85 +15 +23 1018.8 1009.3

 

Местоположение метеостанции Усть-Цильма (Коми, Россия): широта 65.43 долгота 52.27 высота над уровнем моря 79 м.

В архиве по умолчанию представлена погода в Усть-Цильме за последнюю неделю. Архивные данные за месяц целиком и за предыдущие месяцы, начиная с января 2011 года, Вы можете получить, выбрав интересующий диапазон дат из раскрывающегося списка и нажав кнопку "Ввод!".


*Определитесь, кто Вы:
робот инопланетянин человек

Внимание! Время в таблицах - всемирное. Для получения местного времени необходимо прибавить поправку, которая равна 3 ч.

Смотрите также архив погоды в соседних городах и на ближайших метеорологических станциях:

Погода в Ижме (Коми, Россия) (91 км)
Погода в Окуневом Носу (Коми, Россия) (92 км)
Погода в Мутном Материке (Коми, Россия) (145 км)
Погода в Кедва-Воме (Коми, Россия) (148 км)
Погода в Ираеле (Коми, Россия) (179 км)
Погода в Коткино (Ненецкий АО, Россия) (185 км)
Погода в Усть-Усе (Коми, Россия) (221 км)
Погода в Ухте (Коми, Россия) (222 км)
Погода в Печоре (Коми, Россия) (227 км)
Погода в Койнасе (Архангельская область, Россия) (229 км)

Пояснения к столбцам:

Ветер - указаны скорость ветра в м/с - средняя за 10 мин, порывы в срок и между сроками (в фигурных скобках) и направление, откуда дует ветер: С - северный, СВ - северо-восточный, В - восточный, ЮВ - юго-восточный, Ю - южный, ЮЗ - юго-западный, З - западный, СЗ - северо-западный.
Видимость - горизонтальная дальность видимости в метрах или километрах. При видимости от 1 до 10 км при отсутствии осадков обычно наблюдается дымка, при ухудшении видимости до 1 км и менее - туман. В сухую погоду видимость может ухудшаться дымом, пылью или мглою.
Явления - указаны атмосферные явления, наблюдавшиеся в срок или в последний час перед сроком; фигурными скобками обозначены явления, наблюдавшиеся между сроками (за 1-3 часа до срока); квадратными скобками обозначены град или гололедные отложения с указанием их диаметра в мм.
Облачность - указаны через наклонную черту общая и нижняя облачность в баллах и высота нижней границы облаков в метрах; квадратными скобками обозначены формы облаков: Ci - перистые, Cs - перисто-слоистые, Cc - перисто-кучевые, Ac - высококучевые, As - высокослоистые, Sc - слоисто-кучевые, Ns - слоисто-дождевые, Cu - кучевые, Cb - кучево-дождевые. Подробнее классификацию облаков см. в Атласе облаков (PDF).
T - Температура воздуха - температура, измеренная на высоте 2 м над землей.
Td - Температура точки росы - температура, при понижении до которой содержащийся в воздухе водяной пар достигнет насыщения.
f - Относительная влажность воздуха - влажноcть воздуха, измеренная на высоте 2 м над землей.
Te - Эффективная температура - температура, которую ощущает одетый по сезону человек в тени. Характеристика душности погоды. При расчете учитывается влияние влажности воздуха и скорости ветра на теплоощущения человека.
Tes - Эффективная температура на солнце - температура, которую ощущает человек, с поправкой на солнечный нагрев. Характеристика знойности погоды. Зависит от высоты солнца над горизонтом, облачности и скорости ветра. Ночью, в пасмурную погоду, а также при ветре 12 м/с и более поправка равна нулю.
P - Атмосферное давление - приведенное к уровню моря атмосферное давление.
Po - Атмосферное давление - измеренное на уровне метеостанции атмосферное давление.
Tmin - Минимальная температура - минимум температуры воздуха на высоте 2 м над землей.
Tmax - Максимальная температура - максимум температуры воздуха на высоте 2 м над землей.
R - Количество осадков - Количество выпавших осадков за период времени, мм. При наведении курсора мыши на число - период времени, за который выпало указанное количество осадков.
R24 - Количество осадков - Количество выпавших осадков за 24 часа, мм.
S - Снежный покров - Высота снежного покрова, см. При наведении курсора мыши на число - состояние снежного покрова и степень покрытия местности в баллах.